Estación meteorológica de Susqueda - Presa de (La Selva, Susqueda)

Consulta los datos en tiempo real de la estación meteorológica de Susqueda - Presa de





Hora UTC 04:20
Temperatura 14.1 ºC
Humedad 85.0 %
Presión 1011.4 hPa
Pluja 0.0 mm
Velocidad viento 0.0 km/h
Dirección viento W

Webcam

Datos diarios 2026-05-04



Hora UTC (invierno +1h; verano +2h)
Temperatura (ºC) Humedad (%) Presión (hPa) Velocidad viento (km/h) Precipitación (mm)
Hora UTC Aire Humedad Presión Vel. Dir. Vel. Max Dir. Intent. máx 5 min.
00:05 13.8 87.0 1012.8 0.0 WSW 0.0 0.0
00:10 13.8 87.0 1012.7 0.0 W 0.0 0.0
00:15 13.8 87.0 1012.7 0.0 W 0.0 0.0
00:20 13.8 87.0 1012.6 0.0 W 0.0 0.0
00:25 13.8 87.0 1012.5 0.0 W 0.0 0.0
00:30 13.7 87.0 1012.4 0.0 W 1.6 0.0
00:35 13.7 87.0 1012.4 0.0 W 1.6 0.0
00:40 13.7 87.0 1012.5 0.0 W 0.0 0.0
00:45 13.7 87.0 1012.4 0.0 W 0.0 0.0
00:50 13.8 87.0 1012.5 0.0 W 0.0 0.0
00:55 13.9 86.0 1012.4 0.0 WNW 0.0 0.0
01:00 13.9 86.0 1012.4 0.0 W 0.0 0.0
01:05 13.8 86.0 1012.4 0.0 WNW 0.0 0.0
01:10 13.8 87.0 1012.3 0.0 WNW 0.0 0.0
01:15 13.8 87.0 1012.3 0.0 W 0.0 0.0
01:20 13.9 86.0 1012.2 0.0 W 1.6 0.0
01:25 13.9 86.0 1012.1 0.0 SW 9.7 0.0
01:30 14.0 86.0 1012.0 0.0 WSW 9.7 0.0
01:35 13.9 86.0 1012.1 0.0 W 11.3 0.0
01:40 14.2 86.0 1012.2 11.3 W 12.9 0.0
01:45 14.2 85.0 1012.1 9.7 W 12.9 0.0
01:50 14.2 85.0 1012.2 0.0 W 12.9 0.0
01:55 14.2 84.0 1012.2 9.7 WNW 11.3 0.0
02:00 14.2 85.0 1012.1 4.8 W 12.9 0.0
02:05 14.2 84.0 1012.1 4.8 W 12.9 0.0
02:10 14.2 84.0 1012.1 11.3 W 12.9 0.0
02:15 14.3 84.0 1012.0 6.4 W 12.9 0.0
02:20 14.3 83.0 1012.0 0.0 WNW 12.9 0.0
02:25 14.3 83.0 1012.0 0.0 WNW 12.9 0.0
02:30 14.3 83.0 1011.9 0.0 W 11.3 0.0
02:35 14.2 84.0 1011.9 0.0 NW 8.0 0.0
02:40 14.0 85.0 1012.0 0.0 NW 0.0 0.0
02:45 13.9 85.0 1012.0 0.0 NNE 0.0 0.0
02:50 14.0 85.0 1012.0 0.0 W 0.0 0.0
02:55 14.1 84.0 1011.9 0.0 W 0.0 0.0
03:00 14.1 84.0 1011.9 0.0 W 0.0 0.0
03:05 14.0 84.0 1011.9 0.0 WNW 1.6 0.0
03:10 14.1 85.0 1011.9 0.0 W 1.6 0.0
03:15 14.1 84.0 1011.8 0.0 W 3.2 0.0
03:20 14.1 84.0 1011.8 0.0 W 3.2 0.0
03:25 14.0 85.0 1011.8 0.0 WNW 9.7 0.0
03:30 14.0 85.0 1011.9 0.0 WNW 4.8 0.0
03:35 13.8 85.0 1011.9 0.0 N 4.8 0.0
03:40 13.9 85.0 1011.8 0.0 WNW 8.0 0.0
03:45 14.2 84.0 1011.7 4.8 WNW 8.0 0.0
03:50 14.2 84.0 1011.6 0.0 WSW 6.4 0.0
03:55 13.9 85.0 1011.5 0.0 W 4.8 0.0
04:00 13.8 86.0 1011.5 0.0 WNW 4.8 0.0
04:05 13.8 86.0 1011.5 0.0 WNW 0.0 0.0
04:10 13.8 86.0 1011.4 0.0 WNW 0.0 0.0
04:15 13.9 85.0 1011.5 0.0 W 0.0 0.0
04:20 14.1 85.0 1011.4 0.0 W 0.0 0.0
Máxima 14.3 87.0 1012.8 11.3 W 12.9 0.0
Mínima 13.7 83.0 1011.4
Total 0.0